Hourly Data Report for July 14, 2012

HALIFAX STANFIELD INT'L A
NOVA SCOTIA

44°52'48.060" N
63°30'00.050" W
145.40 m
8202250
71395
YHZ

Download Data

Hourly Data (July 2012)
Hourly Data Report for July 14, 2012
TIME
LST
Temp Definition
°C
Dew Point Definition
°C
Rel Hum Definition
%
Precip. Amount Definition
mm

Wind Dir Definition
10's deg

Wind Spd Definition
km/h
Visibility Definition
km
Stn Press Definition
kPa
Hmdx Definition


Wind Chill Definition


Weather Definition


00:00 19.3 16.6 84   23 17 24.1 100.28     Mainly Clear
01:00 18.8 16.6 87   24 13 24.1 100.27     Clear
02:00 17.9 16.5 92   23 19 24.1 100.22     Clear
03:00 17.7 15.4 86   23 19 24.1 100.20     Clear
04:00 17.0 15.0 88   23 17 24.1 100.18     Mainly Clear
05:00 16.1 14.1 88   22 13 24.1 100.19     Mainly Clear
06:00 17.0 13.1 78   22 20 24.1 100.17     Mainly Clear
07:00 18.8 13.0 69   23 22 24.1 100.15     Mainly Clear
08:00 21.6 13.6 60   23 26 24.1 100.12 25   Mainly Clear
09:00 23.7 14.4 56   23 28 24.1 100.06 27   Mainly Clear
10:00 25.0 16.0 57   24 24 24.1 100.03 30   Mainly Clear
11:00 26.8 17.4 56   25 20 24.1 99.97 32   Mainly Clear
12:00 27.7 18.7 58   24 28 24.1 99.93 34   Mainly Clear
13:00 28.5 20.1 60   20 20 24.1 99.90 36   Mainly Clear
14:00 28.7 20.0 59   20 30 24.1 99.84 36   Mainly Clear
15:00 29.3 20.2 58   23 26 24.1 99.81 37   Thunderstorms
16:00 29.0 19.6 57   28 13 24.1 99.81 36   Thunderstorms
17:00 27.3 17.8 56   33 30 24.1 99.86 33   Mostly Cloudy
18:00 25.0 18.8 68   2 19 24.1 99.90 32   Mostly Cloudy
19:00 24.4 18.9 71   35 19 24.1 99.93 31   Mostly Cloudy
20:00 22.3 19.0 82   34 13 24.1 99.96 29   Mainly Clear
21:00 21.1 18.2 84   35 19 24.1 100.00 27   Mainly Clear
22:00 19.1 17.3 89   35 11 24.1 100.04     Mainly Clear
23:00 18.6 17.2 92   36 22 19.3 100.06     Cloudy

Notes on Data Quality.

Legend

  • E = Estimated
  • M = Missing
  • NA = Not Available*
  • [empty] = Indicates an unobserved value
Date modified: